This demonstration page uses our WeatherBlox Daily Observations layout. Learn more.

Left ArrowRight Arrow

Hourly Observations for May 20, 2020

Temp ( °F °C ) Dew Point ( °F °C ) Humidity (%) Winds ( mph kmh ) Pressure ( in mb ) Visibility ( mi km ) Precip ( " mm )
12:53 am 00:53 Clear 56 13.3 50 10 81 81 S 6 9 30.01 1016 10 16 0.00 0.00
1:53 am 01:53 Clear 53 11.7 49 9.4 86 86 N 5 7 30.01 1016 10 16 0.00 0.00
2:53 am 02:53 Clear 51 10.6 48 8.9 89 89 N 3 6 30.02 1017 10 16 0.00 0.00
3:53 am 03:53 Clear 52 11.1 49 9.4 89 89 N 3 6 30.03 1017 10 16 0.00 0.00
4:53 am 04:53 Partly Cloudy 50 10 48 8.9 93 93 Calm 30.05 1018 10 16 0.00 0.00
5:53 am 05:53 Partly Cloudy 49 9.4 47 8.3 93 93 NNE 3 6 30.06 1018 10 16 0.00 0.00
6:46 am 06:46 Mostly Cloudy 50 10 48 8.9 93 93 NE 3 6 30.10 1019 10 16 0.00 0.00
6:53 am 06:53 Mostly Cloudy 50 10 48 8.9 93 93 NE 3 6 30.09 1019 10 16 0.00 0.00
7:53 am 07:53 Mostly Cloudy 55 12.8 50 10 83 83 NNE 3 6 30.11 1020 10 16 0.00 0.00
8:53 am 08:53 Mostly Cloudy 59 15 52 11.1 78 78 SE 5 7 30.12 1020 10 16 0.00 0.00
9:20 am 09:20 Mostly Cloudy 59 15 51 10.6 75 75 Calm 30.13 1020 10 16 0.00 0.00
9:53 am 09:53 Mostly Cloudy 62 16.7 53 11.7 73 73 W 3 6 30.12 1020 10 16 0.00 0.00
10:46 am 10:46 Mostly Cloudy 64 17.8 51 10.6 63 63 Calm 30.12 1020 10 16 0.00 0.00
10:53 am 10:53 Mostly Cloudy 64 17.8 51 10.6 63 63 Calm 30.12 1020 10 16 0.00 0.00
11:53 am 11:53 Mostly Sunny 67 19.4 50 10 55 55 S 3 6 30.11 1020 10 16 0.00 0.00
12:53 pm 12:53 Partly Cloudy 69 20.6 50 10 51 51 undefined N/A 30.09 1019 10 16 0.00 0.00
1:53 pm 13:53 Mostly Sunny 71 21.7 50 10 47 47 ESE 5 7 30.07 1018 10 16 0.00 0.00
2:53 pm 14:53 Sunny 72 22.2 50 10 46 46 SE 9 15 30.06 1018 10 16 0.00 0.00
3:53 pm 15:53 Sunny 73 22.8 50 10 44 44 SE 8 13 30.04 1017 10 16 0.00 0.00
4:53 pm 16:53 Sunny 74 23.3 50 10 43 43 undefined N/A 30.03 1017 10 16 0.00 0.00
5:53 pm 17:53 Sunny 74 23.3 49 9.4 41 41 SSE 9 15 30.02 1017 10 16 0.00 0.00
6:53 pm 18:53 Sunny 73 22.8 49 9.4 43 43 SSE 6 9 30.02 1017 10 16 0.00 0.00
7:53 pm 19:53 Sunny 71 21.7 50 10 47 47 SSE 7 11 30.02 1017 10 16 0.00 0.00
8:53 pm 20:53 Clear 67 19.4 51 10.6 57 57 SSE 3 6 30.03 1017 10 16 0.00 0.00
9:53 pm 21:53 Mostly Cloudy 65 18.3 53 11.7 66 66 NNE 3 6 30.04 1017 10 16 0.00 0.00
10:53 pm 22:53 Cloudy 65 18.3 53 11.7 66 66 N 3 6 30.05 1018 10 16 0.00 0.00
11:53 pm 23:53 Mostly Cloudy 63 17.2 54 12.2 73 73 Calm 30.05 1018 10 16 0.00 0.00

Powered by AerisWeather